Hatteras, NC

9:37 AM EDT on October 23, 2019 (GMT -0400)
Mitchell

Weather History for KHSE - August, 2019

Change the Weather History Date:

Tuesday, August 6, 2019

  Actual Average Record
Temperature  
Mean Temperature 79 °F 79 °F  
Max Temperature 84 °F 85 °F 93 °F (1989)
Min Temperature 73 °F 73 °F 57 °F (1976)
Degree Days  
Heating Degree Days 0 0  
Month to date heating degree days 0 0  
Since 1 June heating degree days 0 3  
Since 1 July heating degree days 0 0  
Cooling Degree Days 14 14  
Month to date cooling degree days 95 84  
Year to date cooling degree days 1395 972  
Since 1 June cooling degree days 1013 829  
Growing Degree Days 29 (Base 50)    
Moisture  
Dew Point 73 °F    
Average Humidity 83    
Maximum Humidity 100    
Minimum Humidity 65    
Precipitation  
Precipitation 0.61 in 0.21 in 3.30 in (1953)
Month to date precipitation 2.10 1.22  
Year to date precipitation 33.82 31.48  
Snow  
Snow 0.00 in - - ()
Month to date snowfall 0.0  
Since 1 July snowfall 0.0  
Snow Depth 0.00 in    
Sea Level Pressure  
Sea Level Pressure 29.91 in    
Wind  
Wind Speed 3 mph ()    
Max Wind Speed 10 mph    
Max Gust Speed 15 mph    
Visibility 8.2 miles    
Events Fog , Rain , Thunderstorm    
T = Trace of Precipitation, MM = Missing Value Source: Averaged Metar Reports

Daily Weather History Graph

Daily Weather History Graph

Search for Another Location

Airport or City:

Astronomy

Aug. 06, 2019 Rise Set
Actual Time 6:15 AM EDT 8:01 PM EDT
Civil Twilight 5:47 AM EDT 8:28 PM EDT
Nautical Twilight 5:14 AM EDT 9:01 PM EDT
Astronomical Twilight 4:38 AM EDT 9:37 PM EDT
Moon 12:23 PM EDT (8/6) 11:59 PM EDT (8/6)
Length of Visible Light 14h 41m
Length of Day
13h 46m
Waxing Crescent, 38% of the Moon is Illuminated
Aug 6
Waxing Crescent
Aug 7
First Quarter
Aug 15
Full
Aug 23
Last Quarter
Aug 30
New

Hourly Weather History & Observations

Time (EDT) Temp. Heat Index Dew Point Humidity Pressure Visibility Wind Dir Wind Speed Gust Speed Precip Events Conditions
12:51 AM 75.9 °F - 73.9 °F 94% 29.93 in 10.0 mi SE 4.6 mph - 0.01 in Rain Light Rain
1:51 AM 75.9 °F - 73.9 °F 94% 29.89 in 8.0 mi Calm Calm - 0.01 in   Clear
2:51 AM 75.0 °F - 73.0 °F 94% 29.87 in 10.0 mi Calm Calm - 0.00 in   Partly Cloudy
3:51 AM 75.9 °F - 73.9 °F 94% 29.88 in 9.0 mi Calm Calm - N/A   Partly Cloudy
4:51 AM 75.9 °F - 73.9 °F 94% 29.89 in 10.0 mi WSW 3.5 mph - N/A   Clear
5:51 AM 75.0 °F - 73.9 °F 96% 29.89 in 10.0 mi WSW 3.5 mph - N/A   Partly Cloudy
6:51 AM 73.9 °F - 73.0 °F 97% 29.90 in 10.0 mi Calm Calm - N/A   Partly Cloudy
7:08 AM 75.9 °F - 75.0 °F 97% 29.91 in 5.0 mi Variable 5.8 mph - 0.00 in Rain , Thunderstorm Light Rain
7:11 AM 75.9 °F - 73.9 °F 94% 29.90 in 1.2 mi North 5.8 mph - 0.01 in Rain , Thunderstorm Heavy Rain
7:15 AM 75.0 °F - 73.0 °F 94% 29.91 in 0.8 mi Variable 4.6 mph - 0.08 in Rain , Thunderstorm Heavy Rain
7:19 AM 75.0 °F - 73.0 °F 94% 29.91 in 0.5 mi NNW 5.8 mph - 0.12 in Fog , Rain Heavy Rain
7:33 AM 75.0 °F - 73.9 °F 96% 29.91 in 0.5 mi Variable 5.8 mph - 0.41 in Fog , Rain Heavy Rain
7:47 AM 73.4 °F - 73.4 °F 100% 29.90 in 1.8 mi Calm Calm - 0.56 in Rain Light Rain
7:49 AM 75.2 °F - 73.4 °F 94% 29.90 in 3.0 mi Calm Calm - N/A Rain Rain
7:51 AM 75.0 °F - 73.9 °F 96% 29.90 in 4.0 mi Calm Calm - 0.56 in Rain Light Rain
8:51 AM 78.1 °F - 75.0 °F 90% 29.91 in 10.0 mi Calm Calm - 0.02 in   Scattered Clouds
9:51 AM 80.1 °F 84.5 °F 73.9 °F 81% 29.92 in 10.0 mi NW 3.5 mph - 0.01 in   Mostly Cloudy
10:18 AM 80.1 °F 84.5 °F 73.9 °F 81% 29.92 in 10.0 mi Variable 4.6 mph - N/A   Mostly Cloudy
10:51 AM 82.0 °F 87.9 °F 73.9 °F 76% 29.92 in 10.0 mi Variable 4.6 mph - N/A   Mostly Cloudy
11:05 AM 82.0 °F 87.9 °F 73.9 °F 76% 29.92 in 10.0 mi Variable 3.5 mph - N/A   Scattered Clouds
11:51 AM 82.9 °F 88.8 °F 73.0 °F 72% 29.93 in 10.0 mi North 3.5 mph - N/A   Clear
12:51 PM 82.0 °F 87.9 °F 73.9 °F 76% 29.92 in 10.0 mi WNW 5.8 mph - N/A   Clear
1:51 PM 82.9 °F 89.4 °F 73.9 °F 74% 29.91 in 10.0 mi Variable 5.8 mph - N/A   Scattered Clouds
2:46 PM 82.4 °F 88.2 °F 73.4 °F 74% 29.91 in 10.0 mi West 3.5 mph - N/A   Mostly Cloudy
2:51 PM 82.0 °F 87.4 °F 73.0 °F 74% 29.91 in 10.0 mi Variable 3.5 mph - N/A   Mostly Cloudy
3:10 PM 84.0 °F 90.2 °F 73.0 °F 69% 29.90 in 10.0 mi Calm Calm - N/A   Scattered Clouds
3:48 PM 84.2 °F 89.6 °F 71.6 °F 66% 29.90 in 10.0 mi Calm Calm - N/A   Mostly Cloudy
3:51 PM 84.9 °F 90.7 °F 72.0 °F 65% 29.90 in 10.0 mi Variable 3.5 mph - N/A   Mostly Cloudy
4:26 PM 84.0 °F 90.2 °F 73.0 °F 69% 29.89 in 10.0 mi SSW 6.9 mph - N/A   Mostly Cloudy
4:51 PM 84.0 °F 90.2 °F 73.0 °F 69% 29.89 in 10.0 mi SSW 6.9 mph - N/A   Partly Cloudy
5:51 PM 81.0 °F 85.8 °F 73.0 °F 77% 29.89 in 10.0 mi Variable 3.5 mph - N/A   Partly Cloudy
6:51 PM 82.0 °F 87.4 °F 73.0 °F 74% 29.90 in 10.0 mi SW 5.8 mph - N/A   Clear
7:51 PM 80.1 °F 83.8 °F 72.0 °F 76% 29.90 in 10.0 mi SSW 6.9 mph - N/A   Partly Cloudy
8:51 PM 79.0 °F - 72.0 °F 79% 29.91 in 10.0 mi SSW 6.9 mph - N/A   Clear
9:51 PM 80.1 °F 84.2 °F 73.0 °F 79% 29.92 in 10.0 mi SW 5.8 mph - N/A   Clear
10:51 PM 80.1 °F 84.2 °F 73.0 °F 79% 29.92 in 10.0 mi SW 8.1 mph - N/A   Clear
11:51 PM 80.1 °F 84.2 °F 73.0 °F 79% 29.92 in 10.0 mi SW 6.9 mph - N/A   Clear